Date String (YYYY-MM-DD hh:mm:ss) UTC,Instrument flags,Ambient pressure (hPa),Sample flow (lpm),Bypass flow (lpm),Sample temperature (°C),Ambient temperature (°C),ASC tube jacket temperature (°C),LED temperature (°C),Box temperature (°C),Sample RH (%),Span deviation,Mass concentration (μg/m³),Mass concentration (μg/m³),Mass concentration (μg/m³)
DateTimeUTC,F1_M11,P_M11,Q1_M11,Q2_M11,T1_M11,T2_M11,T3_M11,T4_M11,T5_M11,U1_M11,ZSPAN_M11,X0_M11,X2_M11,X1_M11
2023-01-02 17:00:00,,0816.9,4.99,0.00,22.8,22.7,00.0,31.5,24.8,17.0,0001.1,0009.15,0007.39,0007.33
2023-01-02 17:01:00,,0816.9,4.98,0.00,22.8,22.3,00.0,31.5,24.7,16.9,0000.9,0009.17,0007.42,0007.36
2023-01-02 17:02:00,,0817.3,5.02,0.00,22.8,22.0,00.0,31.5,24.6,16.9,0000.4,0009.18,0007.42,0007.37
2023-01-02 17:03:00,,0817.3,5.01,0.00,22.8,21.8,00.0,31.5,24.6,16.8,0000.2,0009.15,0007.41,0007.36
2023-01-02 17:04:00,,0816.9,4.99,0.00,22.8,21.7,00.0,31.6,24.5,16.8,0000.3,0009.12,0007.40,0007.35
2023-01-02 17:05:00,,0816.9,4.99,0.00,22.8,21.6,00.0,31.6,24.5,16.8,0000.1,0009.10,0007.39,0007.33
2023-01-02 17:06:00,,0816.9,5.00,0.00,22.8,21.5,00.0,31.6,24.5,16.8,0000.0,0009.07,0007.37,0007.32
2023-01-02 17:07:00,,0816.9,5.01,0.00,22.8,21.4,00.0,31.6,24.5,16.8,0000.0,0009.06,0007.35,0007.30
2023-01-02 17:08:00,,0817.0,5.00,0.00,22.7,21.4,00.0,31.6,24.5,16.8,-000.2,0009.03,0007.34,0007.29
2023-01-02 17:09:00,,0817.0,5.00,0.00,22.7,21.3,00.0,31.6,24.4,16.8,0000.0,0009.03,0007.33,0007.28
2023-01-02 17:10:00,,0817.3,4.99,0.00,22.7,21.3,00.0,31.6,24.5,16.8,0000.0,0008.98,0007.31,0007.27
2023-01-02 17:11:00,,0817.1,4.99,0.00,22.7,21.3,00.0,31.6,24.4,16.8,0000.0,0008.99,0007.30,0007.26
2023-01-02 17:12:00,,0817.3,5.01,0.00,22.7,21.3,00.0,31.5,24.4,16.7,-000.6,0008.99,0007.29,0007.26
2023-01-02 17:13:00,,0817.1,5.01,0.00,22.7,21.3,00.0,31.5,24.4,16.7,0000.0,0009.00,0007.30,0007.26
2023-01-02 17:14:00,,0817.3,5.00,0.00,22.7,21.3,00.0,31.5,24.4,16.8,0000.0,0008.99,0007.29,0007.26
2023-01-02 17:15:00,,0817.2,5.00,0.00,22.7,21.2,00.0,31.5,24.4,16.7,0000.0,0009.01,0007.29,0007.26
2023-01-02 17:16:00,,0816.9,5.00,0.00,22.7,21.2,00.0,31.5,24.4,16.7,0000.0,0009.06,0007.30,0007.27
2023-01-02 17:17:00,,0816.9,5.00,0.00,22.6,21.1,00.0,31.5,24.3,16.7,-000.4,0009.07,0007.30,0007.27
2023-01-02 17:18:00,,0817.2,5.00,0.00,22.6,21.1,00.0,31.5,24.3,16.6,0000.0,0009.10,0007.32,0007.28
2023-01-02 17:19:00,,0817.1,5.01,0.00,22.6,21.1,00.0,31.5,24.3,16.6,0000.0,0009.16,0007.35,0007.29
2023-01-02 17:20:00,,0816.9,5.01,0.00,22.6,21.4,00.0,31.5,24.4,16.6,0000.0,0009.21,0007.37,0007.31
2023-01-02 17:21:00,,0816.8,5.00,0.00,22.7,22.3,00.0,31.4,24.6,16.5,0000.0,0009.24,0007.39,0007.33
2023-01-02 17:22:00,,0816.9,5.00,0.00,22.8,23.2,00.0,31.5,24.9,16.4,0000.0,0009.26,0007.39,0007.33
2023-01-02 17:23:00,,0816.9,4.99,0.00,22.9,23.2,00.0,31.5,24.9,16.3,0000.0,0009.32,0007.41,0007.33
2023-01-02 17:24:00,,0817.0,5.01,0.00,22.9,22.9,00.0,31.6,24.9,16.2,0000.0,0009.37,0007.42,0007.33
2023-01-02 17:25:00,,0817.2,5.01,0.00,22.9,22.5,00.0,31.6,24.9,16.2,0000.0,0009.40,0007.42,0007.33
2023-01-02 17:26:00,,0816.9,5.01,0.00,22.9,22.2,00.0,31.6,24.8,16.1,-001.0,0009.38,0007.40,0007.31
2023-01-02 17:27:00,,0816.8,5.00,0.00,22.9,22.0,00.0,31.7,24.8,16.1,-002.1,0009.36,0007.38,0007.29
2023-01-02 17:28:00,,0816.8,4.99,0.00,22.9,21.9,00.0,31.7,24.7,16.1,-002.2,0009.39,0007.40,0007.31
2023-01-02 17:29:00,,0817.0,4.99,0.00,22.9,21.7,00.0,31.7,24.7,16.1,-002.3,0009.41,0007.42,0007.33
2023-01-02 17:30:00,,0817.2,5.00,0.00,22.9,21.6,00.0,31.7,24.7,16.1,-002.4,0009.38,0007.39,0007.31
2023-01-02 17:31:00,,0816.9,5.03,0.00,22.9,21.5,00.0,31.7,24.6,16.1,-002.3,0009.33,0007.34,0007.27
2023-01-02 17:32:00,,0816.7,5.02,0.00,22.9,21.4,00.0,31.7,24.6,16.1,-002.1,0009.31,0007.33,0007.25
2023-01-02 17:33:00,,0816.7,5.01,0.00,22.9,21.4,00.0,31.7,24.6,16.1,-002.2,0009.27,0007.29,0007.23
2023-01-02 17:34:00,,0816.6,5.00,0.00,22.8,21.3,00.0,31.7,24.6,16.1,-002.1,0009.20,0007.24,0007.19
2023-01-02 17:35:00,,0816.7,4.99,0.00,22.8,21.3,00.0,31.7,24.5,16.1,-002.1,0009.11,0007.17,0007.13
2023-01-02 17:36:00,,0816.6,5.00,0.00,22.8,21.3,00.0,31.7,24.5,16.1,-002.1,0009.10,0007.13,0007.08
2023-01-02 17:37:00,,0816.6,4.98,0.00,22.8,21.2,00.0,31.7,24.5,16.1,-002.1,0009.09,0007.09,0007.04
2023-01-02 17:38:00,,0816.7,5.00,0.00,22.7,21.2,00.0,31.6,24.5,16.1,-001.8,0009.04,0007.05,0006.99
2023-01-02 17:39:00,,0816.5,4.99,0.00,22.7,21.2,00.0,31.6,24.4,16.1,-001.7,0008.98,0006.98,0006.93
2023-01-02 17:40:00,,0816.5,5.00,0.00,22.7,21.2,00.0,31.6,24.4,16.2,-002.0,0008.93,0006.92,0006.87
2023-01-02 17:41:00,,0816.5,5.00,0.00,22.7,21.2,00.0,31.6,24.4,16.2,-001.8,0008.90,0006.88,0006.82
2023-01-02 17:42:00,,0816.5,5.00,0.00,22.7,21.1,00.0,31.6,24.4,16.3,0000.0,0008.86,0006.85,0006.79
2023-01-02 17:43:00,,0816.5,5.00,0.00,22.7,21.4,00.0,31.6,24.5,16.4,0000.0,0008.83,0006.81,0006.75
2023-01-02 17:44:00,,0816.5,5.00,0.00,22.8,22.4,00.0,31.5,24.7,16.4,0000.0,0008.79,0006.77,0006.71
2023-01-02 17:45:00,,0816.5,5.01,0.00,22.9,22.9,00.0,31.6,24.9,16.4,0000.0,0008.80,0006.77,0006.72
2023-01-02 17:46:00,,0816.4,4.99,0.00,22.9,22.6,00.0,31.6,24.9,16.4,0000.0,0008.81,0006.80,0006.74
2023-01-02 17:47:00,,0816.4,4.99,0.00,22.9,22.3,00.0,31.6,24.8,16.4,0000.0,0008.80,0006.81,0006.77
2023-01-02 17:48:00,,0816.5,5.00,0.00,22.9,22.1,00.0,31.7,24.8,16.4,0000.0,0008.81,0006.84,0006.80
2023-01-02 17:49:00,,0816.4,5.00,0.00,22.9,21.9,00.0,31.7,24.7,16.4,0000.0,0008.84,0006.88,0006.83
2023-01-02 17:50:00,,0816.4,5.00,0.00,22.9,21.8,00.0,31.7,24.7,16.4,0000.0,0008.88,0006.92,0006.87
2023-01-02 17:51:00,,0816.4,4.99,0.00,22.9,21.6,00.0,31.7,24.6,16.4,0000.0,0008.93,0006.97,0006.91
2023-01-02 17:52:00,,0816.4,5.00,0.00,22.9,21.6,00.0,31.7,24.6,16.4,0000.0,0008.97,0006.99,0006.93
2023-01-02 17:53:00,,0816.4,5.00,0.00,22.9,21.5,00.0,31.7,24.6,16.4,0000.0,0008.98,0007.01,0006.95
2023-01-02 17:54:00,,0816.4,5.00,0.00,22.9,21.5,00.0,31.7,24.6,16.4,0000.0,0009.01,0007.04,0006.98
2023-01-02 17:55:00,,0816.4,5.02,0.00,22.8,21.4,00.0,31.7,24.6,16.4,0000.0,0009.03,0007.06,0007.00
2023-01-02 17:56:00,,0816.4,5.00,0.00,22.8,21.4,00.0,31.7,24.6,16.4,0000.0,0009.03,0007.06,0006.99
2023-01-02 17:57:00,,0816.4,5.00,0.00,22.8,21.4,00.0,31.7,24.6,16.4,0000.0,0009.06,0007.07,0006.99
2023-01-02 17:58:00,,0816.4,4.99,0.00,22.8,21.3,00.0,31.7,24.5,16.4,0000.0,0009.08,0007.06,0006.98
2023-01-02 17:59:00,,0816.4,5.00,0.00,22.8,21.3,00.0,31.7,24.5,16.3,-000.4,0009.05,0007.01,0006.92
